When you browse on this site, cookies collect data to enhance your experience and personalize the content and advertising you see.
Visit our Privacy Policy to learn more. By continuing to use the site, you agree to this use of cookies and data.
  • In United Kingdom
  • List of Countries
  • For 7 days
  • Water Temperature
  • Satellite Maps
  • Weather Map
  • Weather Widgets
  • user-avatar
    Login

    Hourly Weather Jalalabad

    Today, 10 December, Monday

    Time Temperature Precipitation Wind Pressure Humidity
    00:00 +12°C° 0.8 mm 1 mps 708 mmHg 71%
    01:00 +12°C° 0.8 mm 1 mps 708 mmHg 73%
    02:00 +11°C° 0.8 mm 1 mps 708 mmHg 75%
    03:00 +11°C° 0.7 mm 1 mps 708 mmHg 77%
    04:00 +10°C° 0.7 mm 0 mps 708 mmHg 78%
    05:00 +10°C° 0.7 mm 0 mps 708 mmHg 79%
    06:00 +9°C° 0.3 mm 0 mps 709 mmHg 79%
    07:00 +9°C° 0.3 mm 0 mps 709 mmHg 79%
    08:00 +9°C° 0.3 mm 0 mps 709 mmHg 79%
    09:00 +11°C° 0.1 mm 1 mps 710 mmHg 75%
    10:00 +12°C° 0.1 mm 1 mps 710 mmHg 71%
    11:00 +12°C° 0.1 mm 1 mps 710 mmHg 68%
    12:00 +13°C° 0.1 mm 1 mps 709 mmHg 65%
    13:00 +13°C° 0.1 mm 1 mps 709 mmHg 63%
    14:00 +13°C° 0.1 mm 1 mps 709 mmHg 61%
    15:00 +13°C° 0.1 mm 1 mps 709 mmHg 62%
    16:00 +13°C° 0.1 mm 1 mps 710 mmHg 64%
    17:00 +12°C° 0.1 mm 1 mps 710 mmHg 65%
    18:00 +12°C° 0.1 mm 1 mps 710 mmHg 67%
    19:00 +11°C° 0.1 mm 1 mps 711 mmHg 70%
    20:00 +10°C° 0.1 mm 0 mps 711 mmHg 72%
    21:00 +9°C° 0.1 mm 0 mps 712 mmHg 72%
    22:00 +10°C° 0.1 mm 1 mps 712 mmHg 72%
    23:00 +10°C° 0.1 mm 1 mps 712 mmHg 72%

    Tomorrow, 11 December, Tuesday

    Time Temperature Precipitation Wind Pressure Humidity
    00:00 +9°C° 0 mm 1 mps 712 mmHg 71%
    01:00 +9°C° 0 mm 1 mps 712 mmHg 70%
    02:00 +9°C° 0 mm 1 mps 712 mmHg 70%
    03:00 +9°C° 0.1 mm 1 mps 712 mmHg 68%
    04:00 +9°C° 0.1 mm 1 mps 711 mmHg 67%
    05:00 +8°C° 0.1 mm 1 mps 711 mmHg 66%
    06:00 +9°C° 0 mm 1 mps 712 mmHg 64%
    07:00 +9°C° 0 mm 1 mps 712 mmHg 63%
    08:00 +9°C° 0 mm 1 mps 712 mmHg 61%
    09:00 +10°C° 0 mm 1 mps 712 mmHg 56%
    10:00 +11°C° 0 mm 1 mps 712 mmHg 52%
    11:00 +13°C° 0 mm 1 mps 712 mmHg 47%
    12:00 +13°C° 0.1 mm 1 mps 711 mmHg 46%
    13:00 +13°C° 0.1 mm 1 mps 711 mmHg 45%
    14:00 +14°C° 0.1 mm 1 mps 710 mmHg 44%
    15:00 +13°C° 0.1 mm 1 mps 711 mmHg 46%
    16:00 +12°C° 0.1 mm 1 mps 711 mmHg 48%
    17:00 +12°C° 0.1 mm 1 mps 711 mmHg 50%
    18:00 +11°C° 0.1 mm 1 mps 711 mmHg 52%
    19:00 +11°C° 0.1 mm 1 mps 712 mmHg 53%
    20:00 +10°C° 0.1 mm 1 mps 712 mmHg 54%
    21:00 +10°C° 0 mm 1 mps 713 mmHg 54%
    22:00 +10°C° 0 mm 1 mps 713 mmHg 53%
    23:00 +9°C° 0 mm 1 mps 713 mmHg 53%

    Day after tomorrow, 12 December, Wednesday

    Time Temperature Precipitation Wind Pressure Humidity
    00:00 +9°C° 0 mm 1 mps 713 mmHg 53%
    01:00 +9°C° 0 mm 1 mps 713 mmHg 53%
    02:00 +8°C° 0 mm 1 mps 713 mmHg 52%
    03:00 +8°C° 0 mm 1 mps 712 mmHg 52%
    04:00 +7°C° 0 mm 2 mps 712 mmHg 51%
    05:00 +7°C° 0 mm 2 mps 712 mmHg 50%
    06:00 +7°C° 0 mm 2 mps 713 mmHg 49%
    07:00 +7°C° 0 mm 2 mps 713 mmHg 48%
    08:00 +8°C° 0 mm 1 mps 714 mmHg 47%
    09:00 +10°C° 0 mm 1 mps 714 mmHg 44%
    10:00 +11°C° 0 mm 1 mps 714 mmHg 40%
    11:00 +12°C° 0 mm 1 mps 713 mmHg 37%
    12:00 +13°C° 0.1 mm 1 mps 713 mmHg 37%
    13:00 +13°C° 0.1 mm 2 mps 713 mmHg 37%
    14:00 +14°C° 0.1 mm 2 mps 712 mmHg 37%
    15:00 +13°C° 0.1 mm 2 mps 712 mmHg 39%
    16:00 +12°C° 0.1 mm 1 mps 712 mmHg 41%
    17:00 +11°C° 0.1 mm 1 mps 712 mmHg 44%
    18:00 +11°C° 0 mm 1 mps 713 mmHg 44%
    19:00 +10°C° 0 mm 1 mps 714 mmHg 44%
    20:00 +9°C° 0 mm 2 mps 715 mmHg 44%
    21:00 +8°C° 0 mm 2 mps 715 mmHg 43%
    22:00 +8°C° 0 mm 2 mps 715 mmHg 43%
    23:00 +8°C° 0 mm 2 mps 715 mmHg 42%

    13 December, Thursday

    Time Temperature Precipitation Wind Pressure Humidity
    00:00 +7°C° 0 mm 2 mps 714 mmHg 42%
    01:00 +7°C° 0 mm 2 mps 714 mmHg 41%
    02:00 +7°C° 0 mm 2 mps 714 mmHg 41%
    03:00 +7°C° 0 mm 2 mps 714 mmHg 40%
    04:00 +6°C° 0 mm 2 mps 714 mmHg 39%
    05:00 +6°C° 0 mm 2 mps 714 mmHg 38%
    06:00 +6°C° 0 mm 2 mps 714 mmHg 37%
    07:00 +6°C° 0 mm 2 mps 714 mmHg 36%
    08:00 +8°C° 0 mm 1 mps 714 mmHg 35%
    09:00 +9°C° 0 mm 1 mps 714 mmHg 33%
    10:00 +11°C° 0 mm 1 mps 714 mmHg 30%
    11:00 +13°C° 0 mm 1 mps 714 mmHg 28%
    12:00 +14°C° 0 mm 1 mps 713 mmHg 28%
    13:00 +14°C° 0 mm 1 mps 712 mmHg 28%
    14:00 +15°C° 0 mm 1 mps 712 mmHg 28%
    15:00 +14°C° 0 mm 1 mps 712 mmHg 30%
    16:00 +12°C° 0 mm 1 mps 712 mmHg 32%
    17:00 +11°C° 0 mm 1 mps 712 mmHg 34%
    18:00 +10°C° 0 mm 1 mps 712 mmHg 34%
    19:00 +10°C° 0 mm 1 mps 713 mmHg 35%
    20:00 +9°C° 0 mm 1 mps 714 mmHg 35%
    21:00 +9°C° 0 mm 1 mps 714 mmHg 33%
    22:00 +9°C° 0 mm 1 mps 714 mmHg 31%
    23:00 +9°C° 0 mm 1 mps 714 mmHg 30%

    14 December, Friday

    Time Temperature Precipitation Wind Pressure Humidity
    00:00 +8°C° 0 mm 1 mps 713 mmHg 29%
    01:00 +8°C° 0 mm 1 mps 713 mmHg 28%
    02:00 +8°C° 0 mm 1 mps 713 mmHg 26%
    03:00 +8°C° 0 mm 1 mps 713 mmHg 26%
    04:00 +8°C° 0 mm 1 mps 713 mmHg 26%
    05:00 +7°C° 0 mm 1 mps 713 mmHg 26%
    06:00 +8°C° 0 mm 1 mps 713 mmHg 26%
    07:00 +8°C° 0 mm 1 mps 713 mmHg 25%
    08:00 +8°C° 0 mm 1 mps 714 mmHg 25%
    09:00 +10°C° 0 mm 1 mps 713 mmHg 25%
    10:00 +13°C° 0 mm 1 mps 713 mmHg 24%
    11:00 +15°C° 0 mm 1 mps 713 mmHg 23%
    12:00 +15°C° 0 mm 1 mps 713 mmHg 23%
    13:00 +16°C° 0 mm 1 mps 712 mmHg 23%
    14:00 +16°C° 0 mm 1 mps 712 mmHg 23%
    15:00 +15°C° 0 mm 1 mps 712 mmHg 24%
    16:00 +13°C° 0 mm 1 mps 712 mmHg 26%
    17:00 +12°C° 0 mm 1 mps 712 mmHg 27%
    18:00 +11°C° 0 mm 1 mps 713 mmHg 27%
    19:00 +11°C° 0 mm 1 mps 714 mmHg 28%
    20:00 +10°C° 0 mm 1 mps 714 mmHg 28%
    21:00 +10°C° 0 mm 1 mps 714 mmHg 27%
    22:00 +10°C° 0 mm 1 mps 714 mmHg 26%
    23:00 +9°C° 0 mm 1 mps 714 mmHg 25%

    15 December, Saturday

    Time Temperature Precipitation Wind Pressure Humidity
    00:00 +9°C° 0 mm 1 mps 714 mmHg 25%
    01:00 +9°C° 0 mm 1 mps 714 mmHg 24%
    02:00 +9°C° 0 mm 1 mps 714 mmHg 24%
    03:00 +8°C° 0 mm 1 mps 713 mmHg 23%
    04:00 +8°C° 0 mm 1 mps 713 mmHg 23%
    05:00 +8°C° 0 mm 1 mps 713 mmHg 23%
    06:00 +8°C° 0 mm 1 mps 714 mmHg 23%
    07:00 +9°C° 0 mm 1 mps 714 mmHg 22%
    08:00 +9°C° 0 mm 1 mps 714 mmHg 22%
    09:00 +11°C° 0 mm 1 mps 714 mmHg 22%
    10:00 +14°C° 0 mm 1 mps 715 mmHg 22%
    11:00 +16°C° 0 mm 1 mps 715 mmHg 21%
    12:00 +18°C° 0 mm 1 mps 714 mmHg 21%
    13:00 +18°C° 0 mm 1 mps 714 mmHg 21%
    14:00 +19°C° 0 mm 1 mps 714 mmHg 21%
    15:00 +16°C° 0 mm 1 mps 714 mmHg 22%
    16:00 +14°C° 0 mm 1 mps 714 mmHg 22%
    17:00 +12°C° 0 mm 0 mps 714 mmHg 23%
    18:00 +12°C° 0 mm 1 mps 714 mmHg 23%
    19:00 +12°C° 0 mm 1 mps 715 mmHg 23%
    20:00 +11°C° 0 mm 1 mps 715 mmHg 23%
    21:00 +11°C° 0 mm 1 mps 715 mmHg 23%
    22:00 +11°C° 0 mm 1 mps 715 mmHg 22%
    23:00 +9°C° 0 mm 2 mps 715 mmHg 22%
    Show more